EW7160 Mount Pleasant SC US current weather conditions

sailwx.info

Wind from 172 at 0 knots

Air temperature 3.9° C
Dewpoint -0.1° C

Last reported at 2019-Nov-13 04:04 UTC.
Time now 2019-Nov-13 05:10 UTC

Location: N 32°52' W 079°49'.
View on Google Maps.

See reports from other nearby stations

  
Tides and Currents Weather Stations Pressure Air Temp Water Temp Dewpoint Dewpoint Depression Visibility Wind Speed Wind Dir Waves Ship Positions
date/time (UTC)wind fromknots sea level pressurealtimeterstation pressurevisibilityair tempwater tempwave heightnotes
2019-Nov-13 04:04 172 0 3.9
2019-Nov-13 03:55 272 4 3.9
2019-Nov-13 03:45 198 0 4.4
2019-Nov-13 03:36 208 0 4.4
2019-Nov-13 03:26 278 0 4.4
2019-Nov-13 03:17 291 5 4.4
2019-Nov-13 03:07 283 3 5.0
2019-Nov-13 02:58 200 5.0
2019-Nov-13 02:48 180 5.0
2019-Nov-13 02:39 251 1 5.0
2019-Nov-13 02:29 312 0 5.0
2019-Nov-13 02:20 232 1 5.0
2019-Nov-13 02:10 257 0 5.0
2019-Nov-13 02:01 255 1 5.6
2019-Nov-13 01:51 312 0 5.6
2019-Nov-13 01:32 233 2 5.6
2019-Nov-13 01:22 169 0 5.6
2019-Nov-13 01:12 272 0 5.6
2019-Nov-13 01:03 250 2 5.6
2019-Nov-13 00:53 264 4 5.6
2019-Nov-13 00:44 256 2 5.6
2019-Nov-13 00:34 271 0 6.1
2019-Nov-13 00:25 278 1 6.1
2019-Nov-13 00:15 327 0 6.7
2019-Nov-13 00:05 242 2 6.7
2019-Nov-12 23:56 214 1 7.2
2019-Nov-12 23:46 168 1 7.8
2019-Nov-12 23:37 275 1 8.3
2019-Nov-12 23:27 161 1 8.3
2019-Nov-12 23:18 253 3 8.9
2019-Nov-12 23:08 275 3 8.9
2019-Nov-12 22:58 229 1 8.9
2019-Nov-12 22:48 256 2 8.9
2019-Nov-12 22:39 264 3 9.4
2019-Nov-12 22:29 268 2 9.4
2019-Nov-12 22:20 281 4 9.4
2019-Nov-12 22:10 296 2 10.0
2019-Nov-12 22:00 224 1 10.0
2019-Nov-12 21:51 255 2 10.6
2019-Nov-12 21:42 271 5 11.7
2019-Nov-12 21:32 280 2 13.3
2019-Nov-12 21:22 280 1 13.9
2019-Nov-12 21:12 251 1 15.0
2019-Nov-12 21:02 281 3 15.0
2019-Nov-12 20:53 296 2 16.1
2019-Nov-12 20:44 272 5 16.7
2019-Nov-12 20:34 283 0 16.7
2019-Nov-12 20:24 257 3 17.2
2019-Nov-12 20:14 285 6 17.8
2019-Nov-12 20:04 233 1 18.3
2019-Nov-12 19:54 263 3 18.3
2019-Nov-12 19:45 273 3 18.9
2019-Nov-12 19:35 282 3 20.0
2019-Nov-12 19:25 217 2 21.1
2019-Nov-12 19:15 193 2 21.7
2019-Nov-12 19:06 196 4 21.7
2019-Nov-12 18:56 205 2 22.2
2019-Nov-12 18:47 207 3 22.2
2019-Nov-12 18:37 192 5 22.8
2019-Nov-12 18:27 191 4 22.8
2019-Nov-12 18:17 194 3 22.8
2019-Nov-12 18:07 186 3 23.3
2019-Nov-12 17:57 203 4 23.3
2019-Nov-12 17:48 180 1 23.3
2019-Nov-12 17:38 182 5 23.9
2019-Nov-12 17:29 179 5 23.9
2019-Nov-12 17:20 185 4 24.4
2019-Nov-12 17:10 177 4 24.4
2019-Nov-12 17:00 173 3 24.4
2019-Nov-12 16:51 182 4 23.9
2019-Nov-12 16:41 172 6 23.3
2019-Nov-12 16:31 177 4 23.9
2019-Nov-12 16:22 178 3 23.9
2019-Nov-12 16:12 198 2 24.4
2019-Nov-12 16:03 183 4 24.4
2019-Nov-12 15:53 165 3 23.9
2019-Nov-12 15:44 177 5 23.9
2019-Nov-12 15:35 185 3 23.9
2019-Nov-12 15:25 195 5 23.3
2019-Nov-12 15:16 184 3 23.3
2019-Nov-12 15:06 176 4 22.8
2019-Nov-12 14:57 191 3 22.2
2019-Nov-12 14:47 197 5 21.7
2019-Nov-12 14:37 180 1 21.7
2019-Nov-12 14:09 178 1 20.6
2019-Nov-12 13:59 157 1 19.4
2019-Nov-12 13:50 164 2 19.4
2019-Nov-12 13:41 157 0 18.9
2019-Nov-12 13:31 157 0 18.3
2019-Nov-12 13:21 270 17.8
2019-Nov-12 13:12 270 17.2
2019-Nov-12 13:02 270 16.7
2019-Nov-12 12:53 270 15.6
2019-Nov-12 12:43 292 14.4
2019-Nov-12 12:34 292 13.3
2019-Nov-12 12:24 292 12.8
2019-Nov-12 12:14 292 12.8
2019-Nov-12 12:05 292 12.2
2019-Nov-12 11:55 292 12.2
2019-Nov-12 11:45 292 12.2
2019-Nov-12 11:35 292 12.2
2019-Nov-12 11:25 292 12.2
2019-Nov-12 11:16 292 12.2
2019-Nov-12 11:07 292 12.2
2019-Nov-12 10:58 292 12.2
2019-Nov-12 10:48 292 12.2
2019-Nov-12 10:38 292 12.2
2019-Nov-12 10:28 292 12.2
2019-Nov-12 10:19 292 12.8
2019-Nov-12 10:09 292 12.8
2019-Nov-12 10:00 292 12.8
2019-Nov-12 09:50 292 12.8
2019-Nov-12 09:40 292 12.8
2019-Nov-12 09:30 292 12.8
2019-Nov-12 09:20 292 12.8
2019-Nov-12 09:11 292 12.8
2019-Nov-12 09:02 292 12.8
2019-Nov-12 08:52 292 13.3
2019-Nov-12 08:43 292 13.3
2019-Nov-12 08:33 292 13.3
2019-Nov-12 08:24 292 13.9
2019-Nov-12 08:14 292 13.9
2019-Nov-12 08:04 292 14.4
2019-Nov-12 07:55 292 14.4
2019-Nov-12 07:46 292 14.4
2019-Nov-12 07:36 292 15.0
2019-Nov-12 07:26 292 15.0
2019-Nov-12 07:16 292 15.0
2019-Nov-12 07:06 207 15.0
2019-Nov-12 06:56 180 14.4
2019-Nov-12 06:46 180 13.3
2019-Nov-12 06:37 180 13.9
2019-Nov-12 06:28 180 13.9
2019-Nov-12 06:18 180 13.9
2019-Nov-12 06:08 270 14.4
2019-Nov-12 05:58 270 14.4
2019-Nov-12 05:48 270 15.0
2019-Nov-12 05:38 270 15.0
2019-Nov-12 05:29 270 15.0
2019-Nov-12 05:19 270 15.6
2019-Nov-12 05:10 270 15.6
2019-Nov-12 05:01 090 15.6
2019-Nov-12 04:51 180 15.6
2019-Nov-12 04:42 180 15.0
2019-Nov-12 04:32 180 15.0
2019-Nov-12 04:22 180 15.0
2019-Nov-12 04:13 180 15.0
2019-Nov-12 04:03 180 15.0
2019-Nov-12 03:53 180 15.0
2019-Nov-12 03:43 180 15.0
2019-Nov-12 03:34 180 15.0
2019-Nov-12 03:24 180 15.0
2019-Nov-12 03:14 180 15.0
2019-Nov-12 03:04 180 15.0
2019-Nov-12 02:54 180 15.0
2019-Nov-12 02:44 180 15.0
2019-Nov-12 02:35 180 14.4
2019-Nov-12 02:25 180 14.4
2019-Nov-12 02:15 180 15.0
2019-Nov-12 02:05 180 15.0
2019-Nov-12 01:56 180 15.0
2019-Nov-12 01:47 180 15.0
2019-Nov-12 01:37 180 15.6
2019-Nov-12 01:27 180 15.6
2019-Nov-12 01:18 180 15.6
2019-Nov-12 01:08 180 15.6
2019-Nov-12 00:58 180 15.0
2019-Nov-12 00:49 180 15.0
2019-Nov-12 00:39 180 15.0
2019-Nov-12 00:29 180 15.0
2019-Nov-12 00:20 180 15.0
2019-Nov-12 00:10 180 15.0
2019-Nov-12 00:01 180 15.6
2019-Nov-11 23:51 180 15.6
2019-Nov-11 23:41 180 15.6
2019-Nov-11 23:31 180 15.6
2019-Nov-11 23:21 180 15.6
2019-Nov-11 23:11 180 16.1
2019-Nov-11 23:01 180 16.1
2019-Nov-11 22:52 180 16.1
2019-Nov-11 22:43 180 16.7
2019-Nov-11 22:33 180 16.7
2019-Nov-11 22:23 180 17.2
2019-Nov-11 22:13 180 17.8
2019-Nov-11 22:03 180 18.3
2019-Nov-11 21:54 180 18.9
2019-Nov-11 21:45 180 18.9
2019-Nov-11 21:36 022 19.4
2019-Nov-11 21:27 019 20.0
2019-Nov-11 21:17 202 20.6
2019-Nov-11 21:08 202 20.6
2019-Nov-11 20:59 178 0 20.6
2019-Nov-11 20:49 112 20.6
2019-Nov-11 20:40 091 20.6
2019-Nov-11 20:30 053 20.6
2019-Nov-11 20:21 112 20.6
2019-Nov-11 20:12 112 1 21.1
2019-Nov-11 20:03 112 21.1
2019-Nov-11 19:54 112 0 21.7
2019-Nov-11 19:44 067 21.7
2019-Nov-11 19:34 090 21.7
2019-Nov-11 19:25 107 21.1
2019-Nov-11 19:15 157 21.1
2019-Nov-11 19:05 157 21.1
2019-Nov-11 18:56 157 0 21.1
2019-Nov-11 18:46 157 21.1
2019-Nov-11 18:36 138 0 21.1
2019-Nov-11 18:26 118 0 21.1
2019-Nov-11 18:17 195 0 20.6
2019-Nov-11 18:07 210 2 20.6
2019-Nov-11 17:58 172 3 20.6
2019-Nov-11 17:49 202 1 20.6
2019-Nov-11 17:40 191 3 20.6
2019-Nov-11 17:30 202 20.0
2019-Nov-11 17:21 192 1 20.6
2019-Nov-11 17:12 165 1 20.6
2019-Nov-11 17:02 147 0 20.0
2019-Nov-11 16:53 258 20.0
2019-Nov-11 16:44 247 19.4
2019-Nov-11 16:34 241 19.4
2019-Nov-11 16:25 256 18.9
2019-Nov-11 16:15 202 0 18.9
2019-Nov-11 16:06 209 0 18.3
2019-Nov-11 15:56 282 1 17.8
2019-Nov-11 15:46 248 0 17.2
2019-Nov-11 15:36 201 17.2
2019-Nov-11 15:26 202 17.2
2019-Nov-11 15:17 292 16.1
2019-Nov-11 15:07 292 15.0
2019-Nov-11 14:57 202 13.9
2019-Nov-11 14:47 233 12.8
2019-Nov-11 14:37 292 12.8
2019-Nov-11 14:27 292 12.8
2019-Nov-11 14:17 292 12.2
2019-Nov-11 14:07 292 11.7
2019-Nov-11 13:58 292 0 11.7
2019-Nov-11 13:48 270 10.6
2019-Nov-11 13:38 292 10.0
2019-Nov-11 13:29 292 9.4
2019-Nov-11 13:19 112 8.9
2019-Nov-11 13:10 112 8.3
2019-Nov-11 13:00 112 7.8
2019-Nov-11 12:51 112 7.8
2019-Nov-11 12:41 112 7.2
2019-Nov-11 12:32 112 7.2
2019-Nov-11 12:22 112 6.7
2019-Nov-11 12:12 112 6.7
2019-Nov-11 12:03 112 6.7
2019-Nov-11 11:53 112 6.1
2019-Nov-11 11:43 112 6.7
2019-Nov-11 11:34 112 6.1
2019-Nov-11 11:24 112 6.1
2019-Nov-11 11:14 112 6.1
2019-Nov-11 11:04 112 6.1
2019-Nov-11 10:54 112 6.1
2019-Nov-11 10:44 112 6.1
2019-Nov-11 10:35 112 6.1
2019-Nov-11 10:25 112 6.1
2019-Nov-11 10:16 112 6.1
2019-Nov-11 10:06 112 6.1
2019-Nov-11 09:57 112 6.1
2019-Nov-11 09:48 112 6.1
2019-Nov-11 09:39 112 6.1
2019-Nov-11 09:29 112 6.1
2019-Nov-11 09:20 112 6.1
2019-Nov-11 09:10 112 6.1
2019-Nov-11 09:00 112 6.1
2019-Nov-11 08:51 112 6.1
2019-Nov-11 08:42 112 6.7
2019-Nov-11 08:32 112 6.7
2019-Nov-11 08:22 112 6.7
2019-Nov-11 08:12 112 6.7
2019-Nov-11 08:02 112 6.7
2019-Nov-11 07:52 112 6.7
2019-Nov-11 07:43 112 6.7
2019-Nov-11 07:33 112 6.7
2019-Nov-11 07:24 112 6.7
2019-Nov-11 07:14 112 7.2
2019-Nov-11 07:04 112 7.2
2019-Nov-11 06:55 112 7.2
2019-Nov-11 06:45 112 7.2
2019-Nov-11 06:35 112 7.2
2019-Nov-11 06:25 112 7.2
2019-Nov-11 06:16 112 7.2
2019-Nov-11 06:06 112 7.2
2019-Nov-11 05:57 112 7.2
2019-Nov-11 05:47 112 7.2
2019-Nov-11 05:38 112 7.8
2019-Nov-11 05:28 112 7.8
2019-Nov-11 05:18 112 7.8
2019-Nov-11 05:08 112 7.8